Location: �terpigny
(49.8910°N, 2.9249°E)
Time: 19:31:08
(UTC+00:00)

H-2A R/B - Pass Details

Date: 24 October 2021
Orbit: 732 x 837 km, 98.2° (Epoch: 07 December)

Event Time Altitude Azimuth Distance (km) Brightness Sun altitude
Rises 17:35:20 0° 162° (SSE) 3,349 5.2 -9.6°
Reaches altitude 10° 17:37:39 10° 161° (SSE) 2,430 4.5 -10.0°
Maximum altitude 17:43:04 85° 74° (ENE) 847 2.2 -10.9°
Drops below altitude 10° 17:48:34 10° 347° (NNW) 2,463 4.7 -11.7°
Sets 17:50:57 0° 347° (NNW) 3,399 5.5 -12.1°
